Skip Page Navigation
NASA JPL Caltech
NASA Logo - Jet Propulsion Laboratory + View the NASA Portal
+ Near-Earth Object (NEO) Program
Search JPL
JPL Home Earth Solar System Stars & Galaxies Technology
JPL Solar System Dynamics
BODIES ORBITS EPHEMERIDES TOOLS PHYSICAL DATA DISCOVERY FAQ SITE MAP
JPL Small-Body Database Browser
Search: [ help ]  
(2007 DL41)
Classification: Apollo [NEO, PHA]          SPK-ID: 3368864
Ephemeris | Orbit Diagram | Orbital Elements | Physical Parameters | Close-Approach Data ]

[ hide orbit diagram ]
Orbit Diagram
Note: Make sure you have Java enabled on your browser to see the applet. This applet is provided as a 3D orbit visualization tool. The applet was implemented using 2-body methods, and hence should not be used for determining accurate long-term trajectories (over several years or decades) or planetary encounter circumstances. For accurate long-term ephemerides, please instead use our Horizons system.
Orbit Viewer

Additional Notes: the orbits shown in the applet are color coded. The planets are white lines, and the asteroid/comet is a blue line. The bright white line indicates the portion of the orbit that is above the ecliptic plane, and the darker portion is below the ecliptic plane. Likewise for the asteroid/comet orbit, the light blue indicates the portion above the ecliptic plane, and the dark blue the portion below the ecliptic plane.

Orbit Viewer applet originally written and kindly provided by Osamu Ajiki (AstroArts), and further modified by Ron Baalke (JPL).


Orbital Elements at Epoch 2456400.5 (2013-Apr-18.0) TDB
Reference: JPL 18 (heliocentric ecliptic J2000)
 Element Value Uncertainty (1-sigma)   Units 
e .4762026941269797 2.8415e-07  
a 1.456936243947898 4.7575e-07 AU
q .7631392794086663 1.9335e-07 AU
i 4.673805332815436 1.6056e-05 deg
node 150.9463083021411 0.00013185 deg
peri 139.9593965282294 0.00013545 deg
M 92.29639614074946 0.00058113 deg
tp 2456235.819760210713
(2012-Nov-04.31976021)
0.00095635 JED
period 642.3315405916327
1.76
0.00031462
8.614e-07
d
yr
n .5604582326261212 2.7452e-07 deg/d
Q 2.150733208487129 7.0231e-07 AU
  Orbit Determination Parameters
   # obs. used (total)      67  
   data-arc span      1031 days (2.82 yr)  
   first obs. used      2007-02-23  
   last obs. used      2009-12-20  
   planetary ephem.      DE405  
   SB-pert. ephem.      SB405-CPV-2  
   condition code      2  
   fit RMS      .62286  
   data source      ORB  
   producer      Otto Matic  
   solution date      2011-Sep-14 20:16:01  

Additional Information
 Earth MOID = .0458495 AU 
 T_jup = 4.499 
[ show covariance matrix ]

Ephemeris | Orbit Diagram | Orbital Elements | Physical Parameters | Close-Approach Data ]

Physical Parameter Table
Parameter Symbol Value Units Sigma Reference Notes
absolute magnitude H 20.666 mag .49884 18 autocmod 2.5a

[ show close-approach data ]
Ephemeris | Orbit Diagram | Orbital Elements | Physical Parameters | Close-Approach Data ]
ABOUT SSD CREDITS/AWARDS PRIVACY/COPYRIGHT GLOSSARY LINKS
FirstGov 2013-May-19 03:35 UT
(server date/time)  
NASA Home Page
Site Manager:   Donald K. Yeomans
Webmaster  Alan B. Chamberlin